SVA20 KJFK-OEJN

Flight info

Callsign SVA20
Flight time N/A
Altitude 33000
Route BETTE DCT ACK DCT TUSKY N355C JOOPY/M083F350 NATV BEXET/N0467F350 DCT DIRUM DCT MORAG DCT NUCHU/N0475F370 L607 BIG L15 MOTOX DCT RUCAC DCT LESDO DCT ETINO DCT DEVDI DCT RIPUS DCT RESIA DCT LABIN DCT VAKSU DCT RODON DCT DIMIS DCT SALUN/N0473F390 N705 BOPIX N710 TAKRI P751 LXR M999 MUVOL
Aircraft B77W/H-SDE1E2E3FGHIJ2J3J4J5M1RWXY/LB1D1

Departure

Time N/A
Airport John F. Kennedy International Airport (KJFK)

Arrival

Time 2026-05-04 13:43
Airport King Abdulaziz International Airport (OEJN)
Time Latitude Longitude Altitude Speed Heading
2026-05-04 13:14 22.31736 38.21721 25186 ft 416 kts 129°
2026-05-04 13:14 22.30057 38.24258 24783 ft 414 kts 129°
2026-05-04 13:15 22.28381 38.26786 24361 ft 413 kts 129°
2026-05-04 13:15 22.26710 38.29297 23942 ft 411 kts 129°
2026-05-04 13:15 22.25044 38.31800 23538 ft 410 kts 128°
2026-05-04 13:15 22.23387 38.34297 23072 ft 408 kts 128°
2026-05-04 13:16 22.21736 38.36780 22632 ft 406 kts 128°
2026-05-04 13:16 22.20081 38.39236 22201 ft 402 kts 129°
2026-05-04 13:16 22.18388 38.41620 21790 ft 399 kts 130°
2026-05-04 13:16 22.16682 38.43970 21390 ft 396 kts 131°
2026-05-04 13:17 22.14984 38.46302 20976 ft 394 kts 130°
2026-05-04 13:17 22.13302 38.48623 20569 ft 392 kts 130°
2026-05-04 13:17 22.11633 38.50935 20156 ft 390 kts 130°
2026-05-04 13:17 22.09973 38.53239 19765 ft 388 kts 130°
2026-05-04 13:18 22.08323 38.55533 19376 ft 386 kts 130°
2026-05-04 13:18 22.06679 38.57818 18960 ft 385 kts 130°
2026-05-04 13:18 22.05037 38.60098 18545 ft 384 kts 130°
2026-05-04 13:18 22.03408 38.62359 18303 ft 378 kts 130°
2026-05-04 13:19 22.01809 38.64594 18018 ft 374 kts 130°
2026-05-04 13:19 22.00241 38.66791 17693 ft 362 kts 130°
2026-05-04 13:19 21.98726 38.68910 17155 ft 356 kts 130°
2026-05-04 13:19 21.97238 38.70989 16822 ft 352 kts 130°
2026-05-04 13:20 21.95754 38.73066 16505 ft 348 kts 130°
2026-05-04 13:20 21.94281 38.75122 16145 ft 345 kts 130°
2026-05-04 13:20 21.92818 38.77165 15783 ft 343 kts 130°
2026-05-04 13:20 21.91363 38.79194 15418 ft 341 kts 130°
2026-05-04 13:21 21.89918 38.81209 15064 ft 339 kts 131°
2026-05-04 13:21 21.88481 38.83214 14707 ft 337 kts 130°
2026-05-04 13:21 21.87050 38.85211 14340 ft 336 kts 131°
2026-05-04 13:21 21.85625 38.87197 13980 ft 334 kts 130°
2026-05-04 13:22 21.84208 38.89171 13699 ft 330 kts 131°
2026-05-04 13:22 21.82827 38.91096 13541 ft 321 kts 131°
2026-05-04 13:22 21.81483 38.92971 13371 ft 312 kts 131°
2026-05-04 13:22 21.80187 38.94775 13237 ft 303 kts 131°
2026-05-04 13:23 21.78954 38.96491 13089 ft 294 kts 130°
2026-05-04 13:23 21.77785 38.98243 12928 ft 285 kts 121°
2026-05-04 13:23 21.77196 39.00211 12525 ft 286 kts 103°
2026-05-04 13:23 21.76839 39.02329 12102 ft 289 kts 103°
2026-05-04 13:24 21.76454 39.04456 11703 ft 291 kts 103°
2026-05-04 13:24 21.76057 39.06587 11400 ft 290 kts 104°
2026-05-04 13:24 21.75667 39.08657 11254 ft 283 kts 104°
2026-05-04 13:25 21.74893 39.12715 10872 ft 270 kts 103°
2026-05-04 13:25 21.74522 39.14658 10761 ft 262 kts 104°
2026-05-04 13:25 21.74158 39.16558 10547 ft 257 kts 104°
2026-05-04 13:25 21.73799 39.18425 10340 ft 252 kts 103°
2026-05-04 13:26 21.73445 39.20258 10169 ft 249 kts 103°
2026-05-04 13:26 21.73094 39.22078 10014 ft 249 kts 103°
2026-05-04 13:26 21.72722 39.23905 9856 ft 250 kts 109°
2026-05-04 13:26 21.71811 39.25463 9668 ft 250 kts 143°
2026-05-04 13:27 21.70262 39.26347 9559 ft 257 kts 161°
2026-05-04 13:27 21.68569 39.26999 9364 ft 260 kts 161°
2026-05-04 13:27 21.66858 39.27667 9177 ft 262 kts 160°
2026-05-04 13:27 21.65146 39.28338 8982 ft 262 kts 160°
2026-05-04 13:28 21.63433 39.29011 8797 ft 261 kts 160°
2026-05-04 13:28 21.61738 39.29675 8575 ft 257 kts 160°
2026-05-04 13:28 21.60078 39.30324 8369 ft 252 kts 160°
2026-05-04 13:28 21.58448 39.30962 8168 ft 247 kts 160°
2026-05-04 13:29 21.56851 39.31587 7945 ft 243 kts 160°
2026-05-04 13:29 21.55271 39.32205 7684 ft 240 kts 160°
2026-05-04 13:29 21.53705 39.32819 7410 ft 240 kts 159°
2026-05-04 13:29 21.52143 39.33430 7237 ft 239 kts 160°
2026-05-04 13:30 21.50561 39.34049 6942 ft 244 kts 159°
2026-05-04 13:30 21.48969 39.34674 6599 ft 247 kts 159°
2026-05-04 13:30 21.47347 39.35309 6268 ft 249 kts 159°
2026-05-04 13:30 21.45725 39.35943 5993 ft 246 kts 159°
2026-05-04 13:31 21.44120 39.36574 5675 ft 245 kts 159°
2026-05-04 13:31 21.42536 39.37195 5248 ft 240 kts 159°
2026-05-04 13:31 21.40986 39.37805 4846 ft 234 kts 159°
2026-05-04 13:31 21.39477 39.38394 4386 ft 227 kts 159°
2026-05-04 13:32 21.38025 39.38965 4046 ft 218 kts 160°
2026-05-04 13:32 21.36598 39.39480 3739 ft 213 kts 171°
2026-05-04 13:32 21.35215 39.39299 3504 ft 193 kts 212°
2026-05-04 13:32 21.34234 39.38369 3369 ft 191 kts 237°
2026-05-04 13:33 21.33759 39.37093 3191 ft 178 kts 279°
2026-05-04 13:33 21.33986 39.36307 3156 ft 162 kts 307°
2026-05-04 13:33 21.34740 39.35429 3117 ft 165 kts 314°
2026-05-04 13:33 21.35541 39.34498 3079 ft 173 kts 314°
2026-05-04 13:34 21.36357 39.33558 3054 ft 170 kts 314°
2026-05-04 13:34 21.37145 39.32659 3049 ft 161 kts 315°
2026-05-04 13:34 21.37922 39.31783 3040 ft 164 kts 314°
2026-05-04 13:34 21.38715 39.30889 3053 ft 166 kts 315°
2026-05-04 13:35 21.39524 39.29981 3037 ft 170 kts 315°
2026-05-04 13:35 21.41250 39.28095 3032 ft 184 kts 324°
2026-05-04 13:35 21.42503 39.27518 2936 ft 205 kts 343°
2026-05-04 13:36 21.43836 39.27051 2776 ft 196 kts 340°
2026-05-04 13:36 21.45084 39.26567 2641 ft 184 kts 339°
2026-05-04 13:36 21.46249 39.26111 2535 ft 172 kts 339°
2026-05-04 13:36 21.47325 39.25688 2383 ft 155 kts 338°
2026-05-04 13:37 21.48276 39.25313 2296 ft 140 kts 338°
2026-05-04 13:37 21.49172 39.24956 2245 ft 141 kts 338°
2026-05-04 13:37 21.50118 39.24581 2163 ft 142 kts 338°
2026-05-04 13:37 21.51012 39.24230 2102 ft 133 kts 338°
2026-05-04 13:38 21.51853 39.23899 2050 ft 129 kts 338°
2026-05-04 13:38 21.52688 39.23569 2025 ft 133 kts 338°
2026-05-04 13:38 21.53551 39.23227 1982 ft 131 kts 338°
2026-05-04 13:38 21.54402 39.22892 1949 ft 127 kts 338°
2026-05-04 13:39 21.55242 39.22560 1889 ft 130 kts 338°
2026-05-04 13:39 21.56088 39.22225 1805 ft 128 kts 338°
2026-05-04 13:39 21.56912 39.21901 1750 ft 125 kts 338°
2026-05-04 13:39 21.57721 39.21579 1711 ft 123 kts 336°
2026-05-04 13:40 21.58521 39.21262 1684 ft 125 kts 338°
2026-05-04 13:40 21.59360 39.20933 1509 ft 130 kts 338°
2026-05-04 13:40 21.60215 39.20595 1344 ft 132 kts 337°
2026-05-04 13:40 21.61069 39.20256 1203 ft 131 kts 338°
2026-05-04 13:41 21.61927 39.19913 1030 ft 132 kts 337°
2026-05-04 13:41 21.62768 39.19580 864 ft 128 kts 336°
2026-05-04 13:41 21.63588 39.19255 726 ft 123 kts 335°
2026-05-04 13:42 21.65224 39.18617 360 ft 126 kts 334°
2026-05-04 13:42 21.66067 39.18282 210 ft 130 kts 333°
2026-05-04 13:42 21.66923 39.17944 48 ft 133 kts 335°
2026-05-04 13:42 21.67711 39.17630 39 ft 103 kts 341°
2026-05-04 13:43 21.68239 39.17422 33 ft 59 kts 340°
2026-05-04 13:43 21.68558 39.17295 32 ft 45 kts 339°
2026-05-04 13:43 21.68814 39.17167 32 ft 30 kts 312°
2026-05-04 13:43 21.68923 39.17026 35 ft 18 kts 310°
2026-05-04 13:44 21.68996 39.16931 34 ft 16 kts 309°
2026-05-04 13:44 21.69084 39.16861 35 ft 15 kts 337°
2026-05-04 13:44 21.69181 39.16813 33 ft 15 kts 335°
2026-05-04 13:44 21.69243 39.16744 31 ft 14 kts 258°
2026-05-04 13:45 21.69164 39.16720 32 ft 14 kts 160°
2026-05-04 13:45 21.69074 39.16757 35 ft 14 kts 158°
2026-05-04 13:45 21.68985 39.16793 36 ft 14 kts 162°
2026-05-04 13:45 21.68891 39.16827 35 ft 15 kts 160°
2026-05-04 13:46 21.68788 39.16869 35 ft 16 kts 159°
2026-05-04 13:46 21.68688 39.16909 35 ft 16 kts 159°
2026-05-04 13:46 21.68575 39.16954 33 ft 18 kts 160°
2026-05-04 13:46 21.68453 39.17001 34 ft 19 kts 160°
2026-05-04 13:47 21.68331 39.17048 35 ft 19 kts 160°
2026-05-04 13:47 21.68209 39.17098 34 ft 19 kts 159°
2026-05-04 13:47 21.68090 39.17144 35 ft 10 kts 160°
2026-05-04 13:47 21.68071 39.17152 35 ft 0 kts 160°
2026-05-04 13:48 21.68060 39.17156 35 ft 6 kts 160°
2026-05-04 13:48 21.68058 39.17157 35 ft 0 kts 160°
2026-05-04 13:48 21.68052 39.17159 35 ft 3 kts 160°
2026-05-04 13:49 21.67974 39.17190 35 ft 21 kts 160°
2026-05-04 13:49 21.67836 39.17244 35 ft 18 kts 160°
2026-05-04 13:49 21.67720 39.17289 35 ft 18 kts 160°
2026-05-04 13:49 21.67604 39.17335 35 ft 18 kts 160°
2026-05-04 13:50 21.67487 39.17383 35 ft 18 kts 159°
2026-05-04 13:50 21.67370 39.17428 35 ft 18 kts 160°
2026-05-04 13:50 21.67260 39.17470 35 ft 13 kts 161°
2026-05-04 13:50 21.67203 39.17445 35 ft 9 kts 245°
2026-05-04 13:51 21.67169 39.17384 35 ft 10 kts 227°
2026-05-04 13:51 21.67118 39.17336 35 ft 9 kts 221°
2026-05-04 13:51 21.67113 39.17331 35 ft 1 kts 221°
2026-05-04 13:51 21.67104 39.17321 35 ft 2 kts 231°
2026-05-04 13:52 21.67117 39.17293 35 ft 2 kts 318°
2026-05-04 13:52 21.67130 39.17276 35 ft 3 kts 309°
2026-05-04 13:52 21.67145 39.17256 35 ft 3 kts 308°
2026-05-04 13:53 21.67154 39.17243 35 ft 0 kts 308°